Location: Unspecified
(45.3825°N, 0.0000°E)
Time: 16:17:58
(UTC+00:00)

COSMOS 1275 DEB - Visible Passes

Search period start: 04 April 2026 00:00
Search period end: 14 April 2026 00:00
Orbit: 888 x 1000 km, 83.1° (Epoch: 28 March)

Date Brightness Start Highest point End Pass type
(mag) Time Alt. Az. Time Alt. Az. Time Alt. Az.
4 Apr ? 02:36:51 10° ESE 02:39:38 14° ENE 02:42:25 10° NE visible
4 Apr ? 04:17:36 10° S 04:23:24 87° W 04:29:17 10° N visible
5 Apr ? 02:50:57 10° SE 02:55:11 21° E 02:59:27 10° NE visible
5 Apr ? 04:33:39 10° SSW 04:39:19 58° WNW 04:45:07 10° N visible
6 Apr ? 03:05:45 10° SSE 03:10:48 32° E 03:15:55 10° NNE visible
6 Apr ? 04:50:00 10° SW 04:55:21 38° WNW 05:00:49 10° N visible
7 Apr ? 03:20:58 10° SSE 03:26:30 49° E 03:32:08 10° NNE visible
8 Apr ? 01:57:59 10° E 01:58:46 10° ENE 01:59:34 10° ENE visible
8 Apr ? 03:36:31 10° S 03:42:17 74° E 03:48:10 10° NNE visible
9 Apr ? 02:10:44 10° ESE 02:14:14 17° E 02:17:47 10° NE visible
9 Apr ? 03:52:41 12° SSW 03:58:09 74° W 04:04:05 10° N visible
10 Apr ? 02:25:11 10° SE 02:29:48 25° E 02:34:31 10° NNE visible
10 Apr ? 04:08:57 12° SSW 04:14:06 49° WNW 04:19:51 10° N visible
11 Apr ? 02:41:08 15° SSE 02:45:27 38° E 02:50:51 10° NNE visible
11 Apr ? 04:25:08 11° SW 04:30:09 33° WNW 04:35:29 10° N visible
12 Apr ? 02:57:17 21° SSE 03:01:09 58° E 03:06:59 10° NNE visible
12 Apr ? 04:41:48 10° WSW 04:46:18 23° WNW 04:50:54 10° NNW visible
13 Apr ? 01:30:52 10° ESE 01:33:19 13° ENE 01:35:46 10° NE visible
13 Apr ? 03:13:23 25° S 03:16:58 87° E 03:22:57 10° N visible
